Year,Month,Day,Hour,Minute,Value (Times are PST for temperature in C)
2016,04,01,00,00,8.80
2016,04,01,00,01,8.70
2016,04,01,00,02,8.70
2016,04,01,00,03,8.70
2016,04,01,00,04,8.70
2016,04,01,00,05,8.70
2016,04,01,00,06,8.70
2016,04,01,00,07,8.70
2016,04,01,00,08,8.70
2016,04,01,00,09,8.70
2016,04,01,00,10,8.70
2016,04,01,00,11,8.70
2016,04,01,00,12,8.70
2016,04,01,00,13,8.70
2016,04,01,00,14,8.70
2016,04,01,00,15,8.70
2016,04,01,00,16,8.70
2016,04,01,00,17,8.70
2016,04,01,00,18,8.60
2016,04,01,00,19,8.60
2016,04,01,00,20,8.60
2016,04,01,00,21,8.60
2016,04,01,00,22,8.60
2016,04,01,00,23,8.60
2016,04,01,00,24,8.60
2016,04,01,00,25,8.50
2016,04,01,00,26,8.50
2016,04,01,00,27,8.50
2016,04,01,00,28,8.50
2016,04,01,00,29,8.40
2016,04,01,00,30,8.40
2016,04,01,00,31,8.40
2016,04,01,00,32,8.40
2016,04,01,00,33,8.40
2016,04,01,00,34,8.40
2016,04,01,00,35,8.40
2016,04,01,00,36,8.40
2016,04,01,00,37,8.40
2016,04,01,00,38,8.40
2016,04,01,00,39,8.30
2016,04,01,00,40,8.30
2016,04,01,00,41,8.30
2016,04,01,00,42,8.30
2016,04,01,00,43,8.30
2016,04,01,00,44,8.30
2016,04,01,00,45,8.30
2016,04,01,00,46,8.20
2016,04,01,00,47,8.20
2016,04,01,00,48,8.20
2016,04,01,00,49,8.20
2016,04,01,00,50,8.10
2016,04,01,00,51,8.10
2016,04,01,00,52,8.10
2016,04,01,00,53,8.10
2016,04,01,00,54,8.10
2016,04,01,00,55,8.10
2016,04,01,00,56,8.10
2016,04,01,00,57,8.10
2016,04,01,00,58,8.20
2016,04,01,00,59,8.20
2016,04,01,01,00,8.20
2016,04,01,01,01,8.20
2016,04,01,01,02,8.20
2016,04,01,01,03,8.20
2016,04,01,01,04,8.20
2016,04,01,01,05,8.20
2016,04,01,01,06,8.20
2016,04,01,01,07,8.20
2016,04,01,01,08,8.20
2016,04,01,01,09,8.20
2016,04,01,01,10,8.20
2016,04,01,01,11,8.20
2016,04,01,01,12,8.20
2016,04,01,01,13,8.20
2016,04,01,01,14,8.10
2016,04,01,01,15,8.10
2016,04,01,01,16,8.10
2016,04,01,01,17,8.10
2016,04,01,01,18,8.10
2016,04,01,01,19,8.10
2016,04,01,01,20,8.10
2016,04,01,01,21,8.10
2016,04,01,01,22,8.10
2016,04,01,01,23,8.10
2016,04,01,01,24,8.10
2016,04,01,01,25,8.10
2016,04,01,01,26,8.10
2016,04,01,01,27,8.10
2016,04,01,01,28,8.10
2016,04,01,01,29,8.10
2016,04,01,01,30,8.10
2016,04,01,01,31,8.10
2016,04,01,01,32,8.10
2016,04,01,01,33,8.10
2016,04,01,01,34,8.10
2016,04,01,01,35,8.10
2016,04,01,01,36,8.00
2016,04,01,01,37,8.00
2016,04,01,01,38,8.00
2016,04,01,01,39,8.00
2016,04,01,01,40,8.00
2016,04,01,01,41,8.00
2016,04,01,01,42,8.00
2016,04,01,01,43,8.00
2016,04,01,01,44,8.00
2016,04,01,01,45,8.00
2016,04,01,01,46,8.00
2016,04,01,01,47,8.00
2016,04,01,01,48,7.90
2016,04,01,01,49,7.90
2016,04,01,01,50,7.90
2016,04,01,01,51,7.90
2016,04,01,01,52,7.90
2016,04,01,01,53,7.90
2016,04,01,01,54,7.80
2016,04,01,01,55,7.80
2016,04,01,01,56,7.80
2016,04,01,01,57,7.70
2016,04,01,01,58,7.70
2016,04,01,01,59,7.60
2016,04,01,02,00,7.60
2016,04,01,02,01,7.60
2016,04,01,02,02,7.50
2016,04,01,02,03,7.50
2016,04,01,02,04,7.50
2016,04,01,02,05,7.40
2016,04,01,02,06,7.40
2016,04,01,02,07,7.40
2016,04,01,02,08,7.40
2016,04,01,02,09,7.40
2016,04,01,02,10,7.40
2016,04,01,02,11,7.40
2016,04,01,02,12,7.40
2016,04,01,02,13,7.40
2016,04,01,02,14,7.40
2016,04,01,02,15,7.40
2016,04,01,02,16,7.40
2016,04,01,02,17,7.40
2016,04,01,02,18,7.40
2016,04,01,02,19,7.40
2016,04,01,02,20,7.40
2016,04,01,02,21,7.40
2016,04,01,02,22,7.40
2016,04,01,02,23,7.40
2016,04,01,02,24,7.40
2016,04,01,02,25,7.40
2016,04,01,02,26,7.40
2016,04,01,02,27,7.40
2016,04,01,02,28,7.40
2016,04,01,02,29,7.40
2016,04,01,02,30,7.40
2016,04,01,02,31,7.40
2016,04,01,02,32,7.40
2016,04,01,02,33,7.40
2016,04,01,02,34,7.40
2016,04,01,02,35,7.40
2016,04,01,02,36,7.40
2016,04,01,02,37,7.40
2016,04,01,02,38,7.40
2016,04,01,02,39,7.40
2016,04,01,02,40,7.40
2016,04,01,02,41,7.30
2016,04,01,02,42,7.30
2016,04,01,02,43,7.30
2016,04,01,02,44,7.20
2016,04,01,02,45,7.20
2016,04,01,02,46,7.20
2016,04,01,02,47,7.20
2016,04,01,02,48,7.20
2016,04,01,02,49,7.10
2016,04,01,02,50,7.10
2016,04,01,02,51,7.10
2016,04,01,02,52,7.10
2016,04,01,02,53,7.10
2016,04,01,02,54,7.10
2016,04,01,02,55,7.20
2016,04,01,02,56,7.20
2016,04,01,02,57,7.20
2016,04,01,02,58,7.20
2016,04,01,02,59,7.20
2016,04,01,03,00,7.20
2016,04,01,03,01,7.20
2016,04,01,03,02,7.20
2016,04,01,03,06,7.20
2016,04,01,03,07,7.20
2016,04,01,03,08,7.20
2016,04,01,03,09,7.20
2016,04,01,03,10,7.20
2016,04,01,03,11,7.20
2016,04,01,03,12,7.20
2016,04,01,03,13,7.20
2016,04,01,03,14,7.20
2016,04,01,03,15,7.20
2016,04,01,03,16,7.20
2016,04,01,03,17,7.20
2016,04,01,03,18,7.10
2016,04,01,03,19,7.10
2016,04,01,03,20,7.10
2016,04,01,03,21,7.10
2016,04,01,03,22,7.10
2016,04,01,03,23,7.00
2016,04,01,03,24,7.00
2016,04,01,03,25,7.00
2016,04,01,03,26,7.00
2016,04,01,03,27,7.00
2016,04,01,03,28,7.00
2016,04,01,03,29,7.00
2016,04,01,03,30,6.90
2016,04,01,03,31,6.90
2016,04,01,03,32,6.90
2016,04,01,03,33,6.90
2016,04,01,03,34,6.90
2016,04,01,03,35,6.90
2016,04,01,03,36,6.90
2016,04,01,03,37,6.80
2016,04,01,03,38,6.80
2016,04,01,03,39,6.80
2016,04,01,03,40,6.80
2016,04,01,03,41,6.80
2016,04,01,03,42,6.80
2016,04,01,03,43,6.80
2016,04,01,03,44,6.80
2016,04,01,03,45,6.80
2016,04,01,03,46,6.80
2016,04,01,03,47,6.80
2016,04,01,03,48,6.80
2016,04,01,03,49,6.80
2016,04,01,03,50,6.80
2016,04,01,03,51,6.80
2016,04,01,03,52,6.80
2016,04,01,03,53,6.80
2016,04,01,03,54,6.80
2016,04,01,03,55,6.80
2016,04,01,03,56,6.80
2016,04,01,03,57,6.80
2016,04,01,03,58,6.80
2016,04,01,03,59,6.70
2016,04,01,04,00,6.70
2016,04,01,04,01,6.70
2016,04,01,04,02,6.70
2016,04,01,04,03,6.60
2016,04,01,04,04,6.60
2016,04,01,04,05,6.60
2016,04,01,04,06,6.60
2016,04,01,04,07,6.60
2016,04,01,04,08,6.60
2016,04,01,04,09,6.60
2016,04,01,04,10,6.60
2016,04,01,04,11,6.60
2016,04,01,04,12,6.60
2016,04,01,04,13,6.60
2016,04,01,04,14,6.60
2016,04,01,04,15,6.60
2016,04,01,04,16,6.60
2016,04,01,04,17,6.60
2016,04,01,04,18,6.60
2016,04,01,04,19,6.60
2016,04,01,04,20,6.60
2016,04,01,04,21,6.60
2016,04,01,04,22,6.60
2016,04,01,04,23,6.60
2016,04,01,04,24,6.60
2016,04,01,04,25,6.60
2016,04,01,04,26,6.60
2016,04,01,04,27,6.50
2016,04,01,04,28,6.50
2016,04,01,04,29,6.50
2016,04,01,04,30,6.50
2016,04,01,04,31,6.50
2016,04,01,04,32,6.50
2016,04,01,04,33,6.60
2016,04,01,04,34,6.50
2016,04,01,04,35,6.50
2016,04,01,04,36,6.50
2016,04,01,04,37,6.50
2016,04,01,04,38,6.50
2016,04,01,04,39,6.50
2016,04,01,04,40,6.50
2016,04,01,04,41,6.50
2016,04,01,04,42,6.50
2016,04,01,04,43,6.40
2016,04,01,04,44,6.40
2016,04,01,04,45,6.40
2016,04,01,04,46,6.40
2016,04,01,04,47,6.40
2016,04,01,04,48,6.30
2016,04,01,04,49,6.40
2016,04,01,04,50,6.40
2016,04,01,04,51,6.40
2016,04,01,04,52,6.40
2016,04,01,04,53,6.40
2016,04,01,04,54,6.40
2016,04,01,04,55,6.40
2016,04,01,04,56,6.40
2016,04,01,04,57,6.40
2016,04,01,04,58,6.40
2016,04,01,04,59,6.40
2016,04,01,05,00,6.40
2016,04,01,05,01,6.40
2016,04,01,05,02,6.40
2016,04,01,05,03,6.40
2016,04,01,05,04,6.40
2016,04,01,05,05,6.40
2016,04,01,05,06,6.40
2016,04,01,05,07,6.30
2016,04,01,05,08,6.30
2016,04,01,05,09,6.30
2016,04,01,05,10,6.30
2016,04,01,05,11,6.30
2016,04,01,05,12,6.30
2016,04,01,05,13,6.30
2016,04,01,05,14,6.30
2016,04,01,05,15,6.20
2016,04,01,05,16,6.20
2016,04,01,05,17,6.20
2016,04,01,05,18,6.20
2016,04,01,05,19,6.20
2016,04,01,05,20,6.10
2016,04,01,05,21,6.10
2016,04,01,05,22,6.10
2016,04,01,05,23,6.10
2016,04,01,05,24,6.10
2016,04,01,05,25,6.10
2016,04,01,05,26,6.10
2016,04,01,05,27,6.10
2016,04,01,05,28,6.10
2016,04,01,05,29,6.10
2016,04,01,05,30,6.10
2016,04,01,05,31,6.10
2016,04,01,05,32,6.10
2016,04,01,05,33,6.10
2016,04,01,05,34,6.10
2016,04,01,05,35,6.10
2016,04,01,05,36,6.10
2016,04,01,05,37,6.10
2016,04,01,05,38,6.10
2016,04,01,05,39,6.10
2016,04,01,05,40,6.10
2016,04,01,05,41,6.10
2016,04,01,05,42,6.10
2016,04,01,05,43,6.10
2016,04,01,05,44,6.10
2016,04,01,05,45,6.10
2016,04,01,05,46,6.10
2016,04,01,05,47,6.10
2016,04,01,05,48,6.10
2016,04,01,05,49,6.10
2016,04,01,05,50,6.10
2016,04,01,05,51,6.10
2016,04,01,05,52,6.10
2016,04,01,05,53,6.10
2016,04,01,05,54,6.10
2016,04,01,05,55,6.10
2016,04,01,05,56,6.10
2016,04,01,05,57,6.10
2016,04,01,05,58,6.00
2016,04,01,05,59,6.00
2016,04,01,06,00,6.00
2016,04,01,06,01,5.90
2016,04,01,06,02,5.90
2016,04,01,06,03,5.90
2016,04,01,06,04,5.90
2016,04,01,06,05,5.90
2016,04,01,06,06,5.80
2016,04,01,06,07,5.80
2016,04,01,06,08,5.80
2016,04,01,06,09,5.80
2016,04,01,06,10,5.80
2016,04,01,06,11,5.80
2016,04,01,06,12,5.80
2016,04,01,06,13,5.80
2016,04,01,06,14,5.80
2016,04,01,06,15,5.80
2016,04,01,06,16,5.80
2016,04,01,06,17,5.80
2016,04,01,06,18,5.80
2016,04,01,06,19,5.80
2016,04,01,06,20,5.80
2016,04,01,06,21,5.80
2016,04,01,06,22,5.80
2016,04,01,06,23,5.80
2016,04,01,06,24,5.80
2016,04,01,06,25,5.80
2016,04,01,06,26,5.80
2016,04,01,06,27,5.80
2016,04,01,06,28,5.80
2016,04,01,06,29,5.80
2016,04,01,06,30,5.80
2016,04,01,06,31,5.80
2016,04,01,06,32,5.80
2016,04,01,06,33,5.80
2016,04,01,06,34,5.80
2016,04,01,06,35,5.80
2016,04,01,06,36,5.80
2016,04,01,06,37,5.80
2016,04,01,06,38,5.80
2016,04,01,06,39,5.80
2016,04,01,06,40,5.80
2016,04,01,06,41,5.80
2016,04,01,06,42,5.80
2016,04,01,06,43,5.80
2016,04,01,06,44,5.80
2016,04,01,06,45,5.80
2016,04,01,06,46,5.80
2016,04,01,06,47,5.80
2016,04,01,06,48,5.80
2016,04,01,06,49,5.80
2016,04,01,06,50,5.70
2016,04,01,06,51,5.70
2016,04,01,06,52,5.70
2016,04,01,06,53,5.70
2016,04,01,06,54,5.60
2016,04,01,06,55,5.60
2016,04,01,06,56,5.60
2016,04,01,06,57,5.60
2016,04,01,06,58,5.70
2016,04,01,06,59,5.70
2016,04,01,07,00,5.70
2016,04,01,07,01,5.70
2016,04,01,07,02,5.70
2016,04,01,07,03,5.70
2016,04,01,07,04,5.80
2016,04,01,07,05,5.80
2016,04,01,07,06,5.70
2016,04,01,07,07,5.70
2016,04,01,07,08,5.70
2016,04,01,07,09,5.70
2016,04,01,07,10,5.70
2016,04,01,07,11,5.70
2016,04,01,07,12,5.60
2016,04,01,07,13,5.60
2016,04,01,07,14,5.60
2016,04,01,07,15,5.60
2016,04,01,07,16,5.60
2016,04,01,07,17,5.60
2016,04,01,07,18,5.60
2016,04,01,07,19,5.60
2016,04,01,07,20,5.60
2016,04,01,07,21,5.60
2016,04,01,07,22,5.60
2016,04,01,07,23,5.60
2016,04,01,07,24,5.60
2016,04,01,07,25,5.60
2016,04,01,07,26,5.70
2016,04,01,07,27,5.70
2016,04,01,07,28,5.70
2016,04,01,07,29,5.80
2016,04,01,07,30,5.80
2016,04,01,07,31,5.80
2016,04,01,07,32,5.80
2016,04,01,07,33,5.80
2016,04,01,07,34,5.80
2016,04,01,07,35,5.80
2016,04,01,07,36,5.80
2016,04,01,07,37,5.80
2016,04,01,07,38,5.90
2016,04,01,07,39,5.90
2016,04,01,07,40,5.90
2016,04,01,07,41,5.90
2016,04,01,07,42,5.90
2016,04,01,07,43,5.90
2016,04,01,07,44,5.90
2016,04,01,07,45,5.90
2016,04,01,07,46,5.90
2016,04,01,07,47,5.90
2016,04,01,07,48,6.00
2016,04,01,07,49,6.00
2016,04,01,07,50,6.00
2016,04,01,07,51,6.00
2016,04,01,07,52,6.00
2016,04,01,07,53,6.00
2016,04,01,07,54,6.10
2016,04,01,07,55,6.10
2016,04,01,07,56,6.20
2016,04,01,07,57,6.20
2016,04,01,07,58,6.20
2016,04,01,07,59,6.20
2016,04,01,08,00,6.30
2016,04,01,08,01,6.30
2016,04,01,08,02,6.30
2016,04,01,08,03,6.40
2016,04,01,08,04,6.40
2016,04,01,08,05,6.50
2016,04,01,08,06,6.50
2016,04,01,08,07,6.60
2016,04,01,08,08,6.70
2016,04,01,08,09,6.80
2016,04,01,08,10,6.90
2016,04,01,08,11,7.00
2016,04,01,08,12,7.00
2016,04,01,08,13,7.10
2016,04,01,08,14,7.20
2016,04,01,08,15,7.30
2016,04,01,08,16,7.30
2016,04,01,08,17,7.30
2016,04,01,08,18,7.30
2016,04,01,08,19,7.30
2016,04,01,08,20,7.30
2016,04,01,08,21,7.40
2016,04,01,08,22,7.40
2016,04,01,08,23,7.40
2016,04,01,08,24,7.40
2016,04,01,08,25,7.40
2016,04,01,08,26,7.50
2016,04,01,08,27,7.60
2016,04,01,08,28,7.60
2016,04,01,08,29,7.60
2016,04,01,08,30,7.70
2016,04,01,08,31,7.80
2016,04,01,08,32,7.80
2016,04,01,08,33,7.90
2016,04,01,08,34,7.90
2016,04,01,08,35,8.00
2016,04,01,08,36,8.10
2016,04,01,08,37,8.10
2016,04,01,08,38,8.20
2016,04,01,08,39,8.30
2016,04,01,08,40,8.30
2016,04,01,08,41,8.40
2016,04,01,08,42,8.40
2016,04,01,08,43,8.50
2016,04,01,08,44,8.50
2016,04,01,08,45,8.60
2016,04,01,08,46,8.70
2016,04,01,08,47,8.70
2016,04,01,08,48,8.80
2016,04,01,08,49,8.80
2016,04,01,08,50,8.90
2016,04,01,08,51,9.00
2016,04,01,08,52,9.10
2016,04,01,08,53,9.20
2016,04,01,08,54,9.30
2016,04,01,08,55,9.40
2016,04,01,08,56,9.40
2016,04,01,08,57,9.50
2016,04,01,08,58,9.60
2016,04,01,08,59,9.70
2016,04,01,09,00,9.70
2016,04,01,09,01,9.80
2016,04,01,09,02,9.80
2016,04,01,09,03,9.90
2016,04,01,09,04,10.00
2016,04,01,09,05,10.10
2016,04,01,09,06,10.20
2016,04,01,09,07,10.30
2016,04,01,09,08,10.50
2016,04,01,09,09,10.60
2016,04,01,09,10,10.80
2016,04,01,09,11,11.00
2016,04,01,09,12,11.10
2016,04,01,09,13,11.30
2016,04,01,09,14,11.40
2016,04,01,09,15,11.60
2016,04,01,09,16,11.70
2016,04,01,09,17,11.80
2016,04,01,09,18,11.80
2016,04,01,09,19,11.90
2016,04,01,09,20,12.00
2016,04,01,09,21,12.00
2016,04,01,09,22,12.10
2016,04,01,09,23,12.30
2016,04,01,09,24,12.40
2016,04,01,09,25,12.50
2016,04,01,09,26,12.60
2016,04,01,09,27,12.80
2016,04,01,09,28,12.90
2016,04,01,09,29,13.00
2016,04,01,09,30,13.10
2016,04,01,09,31,13.20
2016,04,01,09,32,13.20
2016,04,01,09,33,13.20
2016,04,01,09,34,13.20
2016,04,01,09,35,13.30
2016,04,01,09,36,13.30
2016,04,01,09,37,13.30
2016,04,01,09,38,13.30
2016,04,01,09,39,13.30
2016,04,01,09,40,13.40
2016,04,01,09,41,13.40
2016,04,01,09,42,13.50
2016,04,01,09,43,13.60
2016,04,01,09,44,13.70
2016,04,01,09,45,13.80
2016,04,01,09,46,14.00
2016,04,01,09,47,14.00
2016,04,01,09,48,14.10
2016,04,01,09,49,14.10
2016,04,01,09,50,14.10
2016,04,01,09,51,14.10
2016,04,01,09,52,14.10
2016,04,01,09,53,14.10
2016,04,01,09,54,14.20
2016,04,01,09,55,14.30
2016,04,01,09,56,14.30
2016,04,01,09,57,14.20
2016,04,01,09,58,14.20
2016,04,01,09,59,14.20
2016,04,01,10,00,14.20
2016,04,01,10,01,14.20
2016,04,01,10,02,14.20
2016,04,01,10,03,14.30
2016,04,01,10,04,14.30
2016,04,01,10,05,14.40
2016,04,01,10,06,14.50
2016,04,01,10,07,14.60
2016,04,01,10,08,14.60
2016,04,01,10,09,14.50
2016,04,01,10,10,14.50
2016,04,01,10,11,14.50
2016,04,01,10,12,14.60
2016,04,01,10,13,14.60
2016,04,01,10,14,14.70
2016,04,01,10,15,14.80
2016,04,01,10,16,14.90
2016,04,01,10,17,15.00
2016,04,01,10,18,15.00
2016,04,01,10,19,15.10
2016,04,01,10,20,15.20
2016,04,01,10,21,15.20
2016,04,01,10,22,15.20
2016,04,01,10,23,15.30
2016,04,01,10,24,15.30
2016,04,01,10,25,15.30
2016,04,01,10,26,15.30
2016,04,01,10,27,15.20
2016,04,01,10,28,15.20
2016,04,01,10,29,15.10
2016,04,01,10,30,15.10
2016,04,01,10,31,15.20
2016,04,01,10,32,15.20
2016,04,01,10,33,15.20
2016,04,01,10,34,15.30
2016,04,01,10,35,15.30
2016,04,01,10,36,15.30
2016,04,01,10,37,15.40
2016,04,01,10,38,15.40
2016,04,01,10,39,15.40
2016,04,01,10,40,15.40
2016,04,01,10,41,15.50
2016,04,01,10,42,15.50
2016,04,01,10,43,15.60
2016,04,01,10,44,15.80
2016,04,01,10,45,15.90
2016,04,01,10,46,16.00
2016,04,01,10,47,16.10
2016,04,01,10,48,16.10
2016,04,01,10,49,16.10
2016,04,01,10,50,16.00
2016,04,01,10,51,15.90
2016,04,01,10,52,15.90
2016,04,01,10,53,15.90
2016,04,01,10,54,16.00
2016,04,01,10,55,16.10
2016,04,01,10,56,16.20
2016,04,01,10,57,16.20
2016,04,01,10,58,16.20
2016,04,01,10,59,16.10
2016,04,01,11,00,16.10
2016,04,01,11,01,16.10
2016,04,01,11,02,16.10
2016,04,01,11,03,16.10
2016,04,01,11,04,16.20
2016,04,01,11,05,16.30
2016,04,01,11,06,16.50
2016,04,01,11,07,16.50
2016,04,01,11,08,16.60
2016,04,01,11,09,16.60
2016,04,01,11,10,16.60
2016,04,01,11,11,16.50
2016,04,01,11,12,16.40
2016,04,01,11,13,16.50
2016,04,01,11,14,16.50
2016,04,01,11,15,16.70
2016,04,01,11,16,16.70
2016,04,01,11,17,16.70
2016,04,01,11,18,16.70
2016,04,01,11,19,16.70
2016,04,01,11,20,16.60
2016,04,01,11,21,16.60
2016,04,01,11,22,16.60
2016,04,01,11,23,16.60
2016,04,01,11,24,16.60
2016,04,01,11,25,16.60
2016,04,01,11,26,16.60
2016,04,01,11,27,16.70
2016,04,01,11,28,16.80
2016,04,01,11,29,16.80
2016,04,01,11,30,16.80
2016,04,01,11,31,16.80
2016,04,01,11,32,16.80
2016,04,01,11,33,16.80
2016,04,01,11,34,16.80
2016,04,01,11,35,16.80
2016,04,01,11,36,16.80
2016,04,01,11,37,16.80
2016,04,01,11,38,16.80
2016,04,01,11,39,16.90
2016,04,01,11,40,16.90
2016,04,01,11,41,17.00
2016,04,01,11,42,17.00
2016,04,01,11,43,17.10
2016,04,01,11,44,17.00
2016,04,01,11,45,16.90
2016,04,01,11,46,16.90
2016,04,01,11,47,16.80
2016,04,01,11,48,16.70
2016,04,01,11,49,16.70
2016,04,01,11,50,16.60
2016,04,01,11,51,16.70
2016,04,01,11,52,16.70
2016,04,01,11,53,16.80
2016,04,01,11,54,16.90
2016,04,01,11,55,17.00
2016,04,01,11,56,17.10
2016,04,01,11,57,17.00
2016,04,01,11,58,17.00
2016,04,01,11,59,17.10
2016,04,01,12,00,17.20
2016,04,01,12,01,17.30
2016,04,01,12,02,17.50
2016,04,01,12,03,17.60
2016,04,01,12,04,17.60
2016,04,01,12,05,17.60
2016,04,01,12,06,17.60
2016,04,01,12,07,17.60
2016,04,01,12,08,17.60
2016,04,01,12,09,17.60
2016,04,01,12,10,17.70
2016,04,01,12,11,17.80
2016,04,01,12,12,17.90
2016,04,01,12,13,17.90
2016,04,01,12,14,17.90
2016,04,01,12,15,17.80
2016,04,01,12,16,17.90
2016,04,01,12,17,17.90
2016,04,01,12,18,17.90
2016,04,01,12,19,17.80
2016,04,01,12,20,17.80
2016,04,01,12,21,17.80
2016,04,01,12,22,17.80
2016,04,01,12,23,17.70
2016,04,01,12,24,17.70
2016,04,01,12,25,17.70
2016,04,01,12,26,17.80
2016,04,01,12,27,17.80
2016,04,01,12,28,17.80
2016,04,01,12,29,17.80
2016,04,01,12,30,17.90
2016,04,01,12,31,17.90
2016,04,01,12,32,17.90
2016,04,01,12,33,17.90
2016,04,01,12,34,17.80
2016,04,01,12,35,17.60
2016,04,01,12,36,17.60
2016,04,01,12,37,17.60
2016,04,01,12,38,17.60
2016,04,01,12,39,17.50
2016,04,01,12,40,17.50
2016,04,01,12,41,17.50
2016,04,01,12,42,17.60
2016,04,01,12,43,17.70
2016,04,01,12,44,17.80
2016,04,01,12,45,17.90
2016,04,01,12,46,17.90
2016,04,01,12,47,18.00
2016,04,01,12,48,18.00
2016,04,01,12,49,18.00
2016,04,01,12,50,18.00
2016,04,01,12,51,18.00
2016,04,01,12,52,18.00
2016,04,01,12,53,18.00
2016,04,01,12,54,18.10
2016,04,01,12,55,18.10
2016,04,01,12,56,18.20
2016,04,01,12,57,18.20
2016,04,01,12,58,18.20
2016,04,01,12,59,18.20
2016,04,01,13,00,18.10
2016,04,01,13,01,18.10
2016,04,01,13,02,18.00
2016,04,01,13,03,18.00
2016,04,01,13,04,18.00
2016,04,01,13,05,18.00
2016,04,01,13,06,17.80
2016,04,01,13,07,17.80
2016,04,01,13,08,17.70
2016,04,01,13,09,17.70
2016,04,01,13,10,17.70
2016,04,01,13,11,17.80
2016,04,01,13,12,18.00
2016,04,01,13,13,18.10
2016,04,01,13,14,18.20
2016,04,01,13,15,18.20
2016,04,01,13,16,18.10
2016,04,01,13,17,18.10
2016,04,01,13,18,18.00
2016,04,01,13,19,17.90
2016,04,01,13,20,17.80
2016,04,01,13,21,17.60
2016,04,01,13,22,17.40
2016,04,01,13,23,17.30
2016,04,01,13,24,17.30
2016,04,01,13,25,17.20
2016,04,01,13,26,17.00
2016,04,01,13,27,17.00
2016,04,01,13,28,17.00
2016,04,01,13,29,17.10
2016,04,01,13,30,17.20
2016,04,01,13,31,17.30
2016,04,01,13,32,17.40
2016,04,01,13,33,17.40
2016,04,01,13,34,17.30
2016,04,01,13,35,17.30
2016,04,01,13,36,17.40
2016,04,01,13,37,17.50
2016,04,01,13,38,17.60
2016,04,01,13,39,17.60
2016,04,01,13,40,17.70
2016,04,01,13,41,17.60
2016,04,01,13,42,17.60
2016,04,01,13,43,17.50
2016,04,01,13,44,17.40
2016,04,01,13,45,17.40
2016,04,01,13,46,17.30
2016,04,01,13,47,17.40
2016,04,01,13,48,17.40
2016,04,01,13,49,17.40
2016,04,01,13,50,17.50
2016,04,01,13,51,17.60
2016,04,01,13,52,17.70
2016,04,01,13,53,17.80
2016,04,01,13,54,17.90
2016,04,01,13,55,17.90
2016,04,01,13,56,17.80
2016,04,01,13,57,17.50
2016,04,01,13,58,17.30
2016,04,01,13,59,17.20
2016,04,01,14,00,17.20
2016,04,01,14,01,17.10
2016,04,01,14,02,17.00
2016,04,01,14,03,16.80
2016,04,01,14,04,16.70
2016,04,01,14,05,16.70
2016,04,01,14,06,16.60
2016,04,01,14,07,16.60
2016,04,01,14,08,16.60
2016,04,01,14,09,16.70
2016,04,01,14,10,16.80
2016,04,01,14,11,16.90
2016,04,01,14,12,17.00
2016,04,01,14,13,17.10
2016,04,01,14,14,17.10
2016,04,01,14,15,17.10
2016,04,01,14,16,17.10
2016,04,01,14,17,17.10
2016,04,01,14,18,17.20
2016,04,01,14,19,17.30
2016,04,01,14,20,17.30
2016,04,01,14,21,17.30
2016,04,01,14,22,17.20
2016,04,01,14,23,17.00
2016,04,01,14,24,16.90
2016,04,01,14,25,16.70
2016,04,01,14,26,16.60
2016,04,01,14,27,16.60
2016,04,01,14,28,16.60
2016,04,01,14,29,16.60
2016,04,01,14,30,16.60
2016,04,01,14,31,16.60
2016,04,01,14,32,16.70
2016,04,01,14,33,16.70
2016,04,01,14,34,16.80
2016,04,01,14,35,16.80
2016,04,01,14,36,16.80
2016,04,01,14,37,16.70
2016,04,01,14,38,16.70
2016,04,01,14,39,16.70
2016,04,01,14,40,16.80
2016,04,01,14,41,16.80
2016,04,01,14,42,16.90
2016,04,01,14,43,17.00
2016,04,01,14,44,17.10
2016,04,01,14,45,17.20
2016,04,01,14,46,17.20
2016,04,01,14,47,17.30
2016,04,01,14,48,17.30
2016,04,01,14,49,17.30
2016,04,01,14,50,17.40
2016,04,01,14,51,17.40
2016,04,01,14,52,17.40
2016,04,01,14,53,17.50
2016,04,01,14,54,17.60
2016,04,01,14,55,17.70
2016,04,01,14,56,17.80
2016,04,01,14,57,18.00
2016,04,01,14,58,18.00
2016,04,01,14,59,18.10
2016,04,01,15,00,18.10
2016,04,01,15,01,18.10
2016,04,01,15,02,18.10
2016,04,01,15,03,18.10
2016,04,01,15,04,18.10
2016,04,01,15,05,18.20
2016,04,01,15,06,18.30
2016,04,01,15,07,18.30
2016,04,01,15,08,18.30
2016,04,01,15,09,18.30
2016,04,01,15,10,18.20
2016,04,01,15,11,18.20
2016,04,01,15,12,18.10
2016,04,01,15,13,18.00
2016,04,01,15,14,18.00
2016,04,01,15,15,18.10
2016,04,01,15,16,18.10
2016,04,01,15,17,18.20
2016,04,01,15,18,18.20
2016,04,01,15,19,18.30
2016,04,01,15,20,18.30
2016,04,01,15,21,18.30
2016,04,01,15,22,18.20
2016,04,01,15,23,18.10
2016,04,01,15,24,18.20
2016,04,01,15,25,18.20
2016,04,01,15,26,18.20
2016,04,01,15,27,18.20
2016,04,01,15,28,18.20
2016,04,01,15,29,18.20
2016,04,01,15,30,18.20
2016,04,01,15,31,18.20
2016,04,01,15,32,18.30
2016,04,01,15,33,18.30
2016,04,01,15,34,18.40
2016,04,01,15,35,18.40
2016,04,01,15,36,18.40
2016,04,01,15,37,18.30
2016,04,01,15,38,18.30
2016,04,01,15,39,18.30
2016,04,01,15,40,18.30
2016,04,01,15,41,18.40
2016,04,01,15,42,18.40
2016,04,01,15,43,18.40
2016,04,01,15,44,18.40
2016,04,01,15,45,18.40
2016,04,01,15,46,18.40
2016,04,01,15,47,18.30
2016,04,01,15,48,18.30
2016,04,01,15,49,18.20
2016,04,01,15,50,18.20
2016,04,01,15,51,18.20
2016,04,01,15,52,18.20
2016,04,01,15,53,18.20
2016,04,01,15,54,18.20
2016,04,01,15,55,18.20
2016,04,01,15,56,18.30
2016,04,01,15,57,18.30
2016,04,01,15,58,18.30
2016,04,01,15,59,18.40
2016,04,01,16,00,18.50
2016,04,01,16,01,18.60
2016,04,01,16,02,18.70
2016,04,01,16,03,18.70
2016,04,01,16,04,18.80
2016,04,01,16,05,18.90
2016,04,01,16,06,18.80
2016,04,01,16,07,18.80
2016,04,01,16,08,18.80
2016,04,01,16,09,18.70
2016,04,01,16,10,18.70
2016,04,01,16,11,18.80
2016,04,01,16,12,18.80
2016,04,01,16,13,18.80
2016,04,01,16,14,18.80
2016,04,01,16,15,18.70
2016,04,01,16,16,18.80
2016,04,01,16,17,18.80
2016,04,01,16,18,18.70
2016,04,01,16,19,18.70
2016,04,01,16,20,18.70
2016,04,01,16,21,18.60
2016,04,01,16,22,18.60
2016,04,01,16,23,18.60
2016,04,01,16,24,18.60
2016,04,01,16,25,18.60
2016,04,01,16,26,18.50
2016,04,01,16,27,18.60
2016,04,01,16,28,18.60
2016,04,01,16,29,18.70
2016,04,01,16,30,18.70
2016,04,01,16,31,18.70
2016,04,01,16,32,18.60
2016,04,01,16,33,18.60
2016,04,01,16,34,18.60
2016,04,01,16,35,18.60
2016,04,01,16,36,18.60
2016,04,01,16,37,18.60
2016,04,01,16,38,18.60
2016,04,01,16,39,18.60
2016,04,01,16,40,18.70
2016,04,01,16,41,18.70
2016,04,01,16,42,18.70
2016,04,01,16,43,18.60
2016,04,01,16,44,18.60
2016,04,01,16,45,18.60
2016,04,01,16,46,18.60
2016,04,01,16,47,18.70
2016,04,01,16,48,18.70
2016,04,01,16,49,18.70
2016,04,01,16,50,18.70
2016,04,01,16,51,18.70
2016,04,01,16,52,18.80
2016,04,01,16,53,18.80
2016,04,01,16,54,18.80
2016,04,01,16,55,18.90
2016,04,01,16,56,18.90
2016,04,01,16,57,18.90
2016,04,01,16,58,18.80
2016,04,01,16,59,18.80
2016,04,01,17,00,18.80
2016,04,01,17,01,18.80
2016,04,01,17,02,18.80
2016,04,01,17,03,18.70
2016,04,01,17,04,18.80
2016,04,01,17,05,18.80
2016,04,01,17,06,18.80
2016,04,01,17,07,18.80
2016,04,01,17,08,18.70
2016,04,01,17,09,18.70
2016,04,01,17,10,18.50
2016,04,01,17,11,18.50
2016,04,01,17,12,18.40
2016,04,01,17,13,18.40
2016,04,01,17,14,18.40
2016,04,01,17,15,18.40
2016,04,01,17,16,18.40
2016,04,01,17,17,18.30
2016,04,01,17,18,18.30
2016,04,01,17,19,18.30
2016,04,01,17,20,18.30
2016,04,01,17,21,18.30
2016,04,01,17,22,18.40
2016,04,01,17,23,18.40
2016,04,01,17,24,18.30
2016,04,01,17,25,18.30
2016,04,01,17,26,18.30
2016,04,01,17,27,18.20
2016,04,01,17,28,18.10
2016,04,01,17,29,18.00
2016,04,01,17,30,17.90
2016,04,01,17,31,17.70
2016,04,01,17,32,17.70
2016,04,01,17,33,17.70
2016,04,01,17,34,17.70
2016,04,01,17,35,17.80
2016,04,01,17,36,17.80
2016,04,01,17,37,17.80
2016,04,01,17,38,17.80
2016,04,01,17,39,17.80
2016,04,01,17,40,17.70
2016,04,01,17,41,17.70
2016,04,01,17,42,17.70
2016,04,01,17,43,17.70
2016,04,01,17,44,17.70
2016,04,01,17,45,17.70